Regional Weather Roundup
Issued by NWS

Home | Current Version | Previous Version | Graphics & Text | Print | Product List | Glossary On
Versions: 1 2 3 4 5 6 7 8 9 10 11 12 13 14 15 16 17 18 19 20 21 22 23 24 25 26 27 28 29 30 31 32 33 34 35 36 37 38 39 40 41 42 43 44 45 46 47 48 49 50
000
ASUS43 KLOT 122003
RWRIL

ILLINOIS REGIONAL WEATHER ROUNDUP
NATIONAL WEATHER SERVICE CHICAGO/ROMEOVILLE IL
200 PM CST FRI FEB 12 2016

NOTE: "FAIR" INDICATES FEW OR NO CLOUDS BELOW 12,000 FEET WITH NO
SIGNIFICANT WEATHER AND/OR OBSTRUCTIONS TO VISIBILITY.

* THESE STATIONS ARE NOT UNDER NWS QUALITY CONTROL. THEY ALSO MAY NOT
  REPORT WEATHER SUCH AS PRECIPITATION OR FOG.

ILZ001-002-007-009-015-016-024-122100-
NORTHWEST ILLINOIS

CITY           SKY/WX    TMP DP  RH WIND       PRES   REMARKS
MOLINE         SUNNY     25   4  40 NW20G37   30.29S WCI  11
STERLING*      MOSUNNY   25   7  46 NW24      30.21S WCI   9
$$

ILZ003-004-008-010-011-017-018-122100-
NORTH CENTRAL ILLINOIS

CITY           SKY/WX    TMP DP  RH WIND       PRES   REMARKS
ROCKFORD       PTSUNNY   22   4  46 NW23G32   30.21S WCI   6
FREEPORT*      MOSUNNY   20   6  54 NW22G29   30.23S WCI   4
DE KALB*       PTSUNNY   21   8  57 NW18G30   30.18S WCI   7
$$

ILZ005-006-012>014-019>023-122100-
NORTHEAST ILLINOIS

CITY           SKY/WX    TMP DP  RH WIND       PRES   REMARKS
CHICAGO-OHARE  PTSUNNY   20   5  52 NW24      30.15S WCI   3
CHICAGO-MIDWAY MOSUNNY   24   5  44 NW21G30   30.16S WCI   9
AURORA         PTSUNNY   23   9  55 NW26      30.18R WCI   6
WAUKEGAN       CLOUDY    21   3  45 NW17G30   30.14R WCI   7
DUPAGE AIRPORT PTSUNNY   20   6  55 NW18      30.16R WCI   5
WHEELING       MOSUNNY   22   6  50 NW22G30   30.16S WCI   6
NORTHERLY ISL    N/A     23   4  44 W16         N/A  WCI  10
$$

LMZ740>746-122100-
SOUTHERN LAKE MICHIGAN

STATION/POSITION SKY/WX   TEMP    WIND        PRES    VSBY  WAVE
                          AIR SEA DIR/SP/G                  HT/PER
                          (F)     (DEG/KT/KT) (MB)    (MI)  (FT/S)
HARRISON CRIB              21     300/ 21/ 23   N/A
BURNHAM HARBOR             22     330/ 15/ 21   N/A
CALUMET HARBOR             22     290/ 16/ 23 1020.2R
BURNS HARBOR               22     310/ 14/ 23 1020.7S
MICHIGAN CITY              21     260/ 26/ 30   N/A
$$

ILZ025>027-034>036-040-047-049-050-058-095>099-122100-
WEST-CENTRAL ILLINOIS

CITY           SKY/WX    TMP DP  RH WIND       PRES   REMARKS
QUINCY         PTSUNNY   24  14  65 NW18G28   30.35R WCI  10
MACOMB*        MOSUNNY   26  16  64 NW26G32   30.33S WCI  11
$$

ILZ028>032-037-038-041>044-048-051>054-059>061-122100-
CENTRAL ILLINOIS

CITY           SKY/WX    TMP DP  RH WIND       PRES   REMARKS
BLOOMINGTON    PTSUNNY   27  15  60 NW20G30   30.22S WCI  14
DECATUR        CLOUDY    27  16  63 NW18G28   30.24R WCI  14
PEORIA         MOSUNNY   28   9  44 NW15G29   30.26S WCI  16
LINCOLN*       PTSUNNY   28  16  61 NW12G22   30.26R WCI  18
SPRINGFIELD    PTSUNNY   27  16  63 NW18G30   30.29R WCI  14
TAYLORVILLE    NOT AVBL
$$

ILZ033-039-045-046-055>057-062-063-122100-
EAST-CENTRAL ILLINOIS

CITY           SKY/WX    TMP DP  RH WIND       PRES   REMARKS
CHAMPAIGN      CLOUDY    26  17  68 NW24      30.20S WCI  11
MATTOON        LGT SNOW  26  20  77 NW21      30.21S WCI  12
$$

ILZ079-100>102-122100-
SOUTHWEST ILLINOIS

CITY           SKY/WX    TMP DP  RH WIND       PRES   REMARKS
ALTON          CLOUDY    27  21  80 NW16G23   30.32R WCI  14
BELLEVILLE     PTSUNNY   32  22  66 NW12      30.29R WCI  23
CAHOKIA*       CLOUDY    33  21  61 NW14      30.32R WCI  23
SPARTA*        CLOUDY    33  22  66 NW14G23   30.30R WCI  23
$$

ILZ064>066-069>071-074>076-080>082-084>086-088>090-092>094-122100-
SOUTH-CENTRAL ILLINOIS

CITY           SKY/WX    TMP DP  RH WIND       PRES   REMARKS
CARBONDALE     CLOUDY    34  23  64 NW16      30.28R WCI  24
MARION         CLOUDY    34  25  69 NW14      30.28R WCI  24
MT. VERNON     CLOUDY    30  21  69 W10       30.27R WCI  21
CENTRALIA*     CLOUDY    32  25  76 NW20G25   30.26S WCI  20
SALEM*         CLOUDY    32  24  72 NW15G21   30.26R WCI  21
$$

ILZ067-068-072-073-078-083-087-091-122100-
SOUTHEAST ILLINOIS

CITY           SKY/WX    TMP DP  RH WIND       PRES   REMARKS
LAWRENCEVILLE  CLOUDY    31  21  66 NW17      30.22S WCI  19
HARRISBURG*    CLOUDY    33  26  76 NW13      30.27R WCI  24
$$

ABBREVIATIONS USED IN REMARKS
   TC - TEMPERATURE IN CELSIUS
  WCI - WIND CHILL INDEX
   HX - HEAT INDEX
  VSB - VISIBILITY
$$




USA.gov is the U.S. government's official web portal to all federal, state and local government web resources and services.